RH
16 31 40 76 71 29 18 32 30 28 26 20 17 12 12 13 12 12 9 8 8 9 9 8 6 7 10 13 13 13 10 8 9 12 16 13 10 14 12 13 13 15 15 12 22
12 11 18 35 54 82 50 17 28 29 28 25 23 18 15 14 12 11 12 9 7 7 7 6 5 6 11 14 12 11 10 10 12 12 13 12 12 14 10 13 13 15 16 16 16
10 8 10 8 27 37 65 79 17 23 28 28 28 24 22 18 15 15 13 11 8 6 6 5 6 8 13 14 12 9 8 13 13 12 12 10 9 11 12 12 12 14 18 15 16
16 14 10 7 8 21 29 65 71 20 23 30 31 26 23 21 17 16 14 13 10 7 6 5 6 10 14 13 12 8 9 11 13 13 12 11 10 9 10 12 12 12 11 11 19
19 18 16 12 7 6 19 22 67 53 29 30 32 28 22 20 19 16 15 13 11 8 6 7 8 11 15 12 9 8 10 9 11 12 14 12 11 10 9 13 12 9 9 10 12
21 19 16 14 12 8 6 15 24 49 18 37 37 32 22 19 18 16 15 13 12 9 7 8 9 12 15 11 9 9 9 10 11 11 12 10 12 8 9 13 10 8 8 10 14
18 16 15 12 10 11 8 5 16 32 24 36 40 29 23 20 19 18 15 13 13 12 10 13 11 14 14 11 11 10 12 11 11 12 11 11 10 9 12 11 10 11 11 11 11
12 12 13 12 10 8 10 7 5 11 42 31 45 27 24 21 20 18 17 15 12 14 14 15 16 14 14 11 16 15 12 12 11 13 11 11 10 11 12 12 11 12 13 12 12
3 4 5 6 7 9 8 6 5 4 45 39 52 29 27 23 22 20 20 18 22 22 23 24 24 21 20 20 18 18 16 14 12 13 10 10 9 13 11 15 12 13 13 13 12
4 2 2 2 3 4 8 6 5 65 22 50 54 32 28 24 22 22 21 22 29 32 34 32 30 28 24 22 21 19 16 16 14 12 12 8 8 10 10 12 10 11 12 12 13
3 3 3 3 2 2 4 6 37 79 28 53 56 38 32 26 22 22 23 24 29 32 34 33 27 26 28 20 18 16 17 16 14 12 11 9 7 6 9 9 11 11 12 12 12
45 51 20 7 4 3 2 5 51 100 94 70 62 77 30 29 22 21 23 24 26 28 27 28 25 32 24 23 21 17 14 12 13 12 10 9 6 6 8 9 10 11 15 17 15
74 78 100 12 7 4 3 7 100 100 90 71 68 91 29 28 23 20 20 21 24 25 27 26 23 22 20 16 14 12 11 11 11 12 11 11 6 11 7 7 11 13 14 16 19
61 88 100 94 9 6 4 91 100 100 100 68 66 85 29 28 24 20 17 18 18 20 16 15 18 17 16 15 15 14 14 16 16 15 15 12 8 7 8 7 7 10 14 14 15
82 92 100 100 59 6 17 100 100 100 97 100 79 75 41 26 24 21 18 17 18 17 17 16 17 19 19 20 19 18 17 17 18 19 16 15 18 4 7 10 14 16 17 17 15
99 99 100 72 46 6 73 100 100 100 100 98 71 66 62 24 26 24 21 20 20 19 20 19 20 20 19 18 20 23 26 29 25 20 16 17 19 8 14 15 14 13 14 16 17
100 90 98 68 21 6 93 100 100 100 96 69 65 58 80 26 24 24 23 22 22 22 21 21 19 20 25 34 34 28 24 21 20 20 16 18 15 8 13 13 11 11 11 14 18
100 95 100 74 7 11 99 100 100 100 92 56 67 56 83 46 22 22 23 22 21 21 22 22 28 35 41 31 26 24 23 26 22 21 16 16 9 13 18 20 20 16 18 18 13
100 100 92 74 5 24 100 100 100 100 100 90 73 52 79 64 38 23 21 21 23 26 33 41 42 41 28 28 28 25 24 21 20 27 29 18 19 25 44 50 46 42 31 36 25
92 100 91 16 4 67 100 100 99 93 98 100 87 56 43 64 58 56 52 46 45 46 47 44 35 28 31 31 26 20 18 21 36 37 41 32 37 51 87 77 90 62 74 71 32
90 85 65 14 21 96 100 100 100 100 100 100 94 78 42 45 57 60 57 53 51 48 38 29 27 32 35 24 18 21 40 58 65 71 71 53 39 83 62 86 96 98 100 86 58
82 95 21 28 96 99 100 94 96 100 100 100 82 77 41 37 46 46 45 41 36 32 30 28 30 41 20 20 36 49 62 74 66 82 79 74 38 42 58 99 98 100 97 74 50
98 71 11 56 98 100 100 95 99 99 100 98 88 95 48 41 37 35 32 34 33 29 26 32 40 22 24 46 59 60 81 79 88 90 83 94 39 54 37 80 98 100 100 76 45
33 6 13 90 100 100 100 100 96 100 97 88 78 78 79 49 46 45 41 38 31 25 30 43 26 25 57 73 67 81 89 100 100 92 99 67 66 54 34 47 67 73 77 72 37
69 41 47 100 82 82 92 100 100 100 85 72 62 59 65 73 67 47 42 34 25 31 44 33 22 40 78 80 91 100 93 100 97 93 87 96 99 88 46 31 37 50 66 61 40
99 87 89 87 76 83 100 100 100 95 76 54 56 51 52 48 46 38 35 25 30 41 40 18 35 74 100 94 97 91 78 76 80 88 100 98 100 88 68 53 52 96 78 51 48
85 100 97 89 96 100 100 98 90 77 62 52 42 49 41 38 31 28 24 25 39 44 22 31 75 98 100 100 100 80 73 76 77 94 82 76 89 88 99 99 98 98 94 53 78
Wind_Speed
24 25 24 24 30 31 29 35 35 38 38 39 40 42 44 47 47 45 43 44 44 43 44 43 43 43 40 38 37 39 41 36 30 27 27 37 36 37 35 33 31 31 31 36 34
27 26 27 27 28 32 34 31 34 36 37 38 38 40 41 44 45 44 45 45 43 42 43 43 42 43 42 36 36 39 41 36 28 29 33 38 37 41 37 36 36 34 35 33 33
29 30 30 29 32 29 31 37 34 35 37 37 37 38 38 42 44 43 45 46 44 44 43 42 41 43 43 37 36 37 40 32 33 29 32 35 35 42 41 39 37 36 37 39 35
35 34 32 33 33 32 32 34 39 39 38 39 38 39 38 39 43 41 45 46 44 44 43 42 41 43 44 39 36 38 37 37 35 32 34 33 34 40 38 40 38 40 38 29 33
42 40 38 36 35 35 35 34 40 43 42 41 39 38 37 37 38 38 41 44 45 45 44 41 42 44 45 41 39 37 38 37 34 33 33 35 35 33 39 40 39 35 31 29 31
45 47 44 42 40 38 38 38 34 39 42 42 40 39 38 37 35 36 38 41 42 43 44 42 43 46 45 44 38 39 39 34 33 30 33 34 32 33 34 34 37 35 31 30 31
48 48 52 49 45 43 40 40 39 36 37 41 40 40 39 37 34 33 35 39 40 43 44 42 42 43 45 45 41 40 38 36 32 31 31 31 30 31 30 34 35 36 35 35 35
50 54 55 55 54 48 46 43 42 40 37 38 39 40 38 35 33 32 34 37 38 40 42 41 41 42 43 43 40 41 39 37 36 32 31 32 29 32 31 33 33 37 38 39 37
69 65 64 63 60 58 50 47 43 41 40 37 39 38 38 34 32 31 31 35 36 39 39 40 41 41 40 40 41 41 39 39 38 34 35 33 31 31 28 31 33 36 38 39 37
77 77 72 63 63 62 58 50 46 36 43 39 40 38 36 35 32 30 30 33 35 38 38 39 39 39 40 39 38 41 41 39 38 37 35 34 32 30 31 31 33 32 32 33 37
55 51 48 41 49 58 61 51 43 45 46 39 38 36 35 34 33 29 28 30 34 35 36 37 38 35 35 38 39 38 37 35 35 35 36 36 36 36 35 34 32 32 34 36 38
24 24 24 26 33 49 59 59 53 45 43 37 39 37 37 36 33 30 27 28 29 30 33 34 32 31 31 31 31 31 32 33 33 34 36 36 35 38 35 35 38 40 38 39 41
11 20 22 15 34 45 56 57 56 48 48 41 39 40 38 37 34 30 29 28 27 27 27 30 28 25 24 25 25 27 29 30 33 35 37 39 40 42 43 43 43 44 46 45 44
13 15 21 27 28 41 48 62 46 44 46 40 40 41 38 38 36 32 31 29 26 23 25 26 21 21 21 21 24 26 29 32 35 39 42 43 49 46 49 51 51 51 50 50 49
13 25 21 25 18 37 59 63 42 48 45 44 43 41 39 39 35 33 31 28 25 24 24 25 21 20 20 23 26 29 31 35 39 43 47 48 57 49 55 57 60 61 61 58 56
17 17 22 16 20 40 66 47 45 50 45 47 43 40 38 38 37 34 32 28 25 24 24 23 21 21 23 26 28 30 35 38 43 48 52 55 59 55 59 61 64 67 67 65 65
21 20 18 9 24 53 69 51 51 47 42 38 39 37 38 34 35 34 30 28 26 25 24 23 22 23 25 27 30 34 35 40 44 47 50 54 60 56 46 48 52 55 62 66 65
24 19 13 11 35 63 66 51 42 47 40 37 35 35 38 32 34 32 31 28 27 26 23 24 24 25 25 29 30 32 34 34 42 46 49 51 54 49 48 44 48 40 44 45 52
20 16 6 19 39 65 55 37 29 42 37 25 33 31 37 34 29 29 29 27 27 24 25 25 26 25 26 26 28 29 34 37 41 42 47 52 55 57 56 54 58 57 59 47 45
18 12 11 29 46 58 48 38 33 42 37 25 24 25 29 33 30 27 26 26 25 25 26 25 24 23 22 23 27 33 34 38 42 49 51 55 56 59 48 49 48 51 52 48 44
8 10 16 30 60 58 44 31 40 42 32 31 24 27 22 28 30 28 27 26 26 26 26 23 22 18 20 24 29 31 33 37 42 44 48 53 53 51 49 47 44 39 37 36 33
5 3 22 43 63 49 27 41 41 33 29 28 25 29 25 27 28 29 29 26 26 23 20 20 18 18 21 24 28 31 32 36 40 39 46 50 49 40 37 34 31 31 32 30 29
3 5 28 44 50 32 27 36 35 31 26 25 26 29 28 25 24 26 24 22 19 19 18 18 18 16 19 24 23 25 28 33 41 45 42 47 43 38 40 30 30 29 28 34 35
11 23 38 48 34 34 25 29 28 23 22 22 24 28 30 26 24 24 21 17 16 17 17 18 15 18 16 20 22 22 22 31 37 44 40 39 44 24 35 31 30 32 34 36 37
25 31 47 39 38 38 31 24 19 23 20 18 22 26 28 29 28 24 20 16 16 16 15 16 16 18 19 18 22 22 27 31 34 34 41 37 38 35 30 25 18 23 28 35 32
37 35 31 34 35 33 24 20 19 19 20 20 23 25 27 27 25 21 16 16 17 15 15 16 16 14 14 13 15 18 25 26 23 27 35 33 29 29 27 23 19 16 13 17 24
18 24 27 28 30 25 20 19 16 15 17 21 24 26 26 24 22 19 17 18 16 16 15 14 11 8 8 8 11 15 16 15 20 24 26 26 27 29 30 23 21 24 9 17 16
Wind_Direction
279 271 268 265 257 254 250 247 243 241 238 234 233 233 236 237 237 235 234 236 240 240 243 243 243 240 237 240 245 250 249 250 253 247 240 241 244 247 245 245 250 249 247 253 251
278 273 269 260 255 255 253 247 244 241 238 236 234 234 236 238 237 236 234 235 236 237 240 241 241 238 234 236 240 250 252 251 250 242 238 241 239 242 247 244 248 250 252 253 252
279 275 269 263 261 255 254 253 250 245 240 238 236 237 236 236 237 234 234 235 234 235 235 239 240 236 234 231 236 247 249 250 244 240 238 239 239 245 245 245 246 248 251 251 253
279 275 268 264 257 255 254 249 249 251 243 240 238 237 237 238 237 233 232 232 232 232 233 233 237 235 235 231 235 243 246 246 248 241 241 242 241 242 250 249 248 247 252 262 257
276 272 269 265 260 255 251 253 241 243 244 240 238 239 236 237 236 233 231 231 230 231 230 230 232 233 236 233 234 240 242 244 244 242 241 239 241 243 248 247 253 256 255 252 250
270 269 265 261 257 252 250 248 250 242 239 238 236 238 236 236 236 234 232 232 228 229 229 227 229 231 234 238 235 238 241 242 242 241 239 238 237 238 243 245 250 254 250 250 247
270 262 261 257 252 249 246 246 244 244 238 235 233 235 235 234 236 236 232 232 231 228 229 227 229 231 234 236 235 235 237 237 237 235 234 236 235 242 237 241 248 253 254 250 250
270 265 258 251 250 244 241 240 241 239 234 233 231 231 230 230 232 235 232 232 231 232 230 228 229 230 232 236 236 234 233 234 232 232 233 234 235 241 243 243 252 255 256 256 254
288 277 265 255 247 240 237 232 236 237 233 230 227 230 227 228 229 231 232 232 231 231 231 229 227 228 231 230 233 234 231 231 234 232 234 234 239 237 246 243 250 255 261 262 260
287 283 278 264 253 239 230 227 226 224 232 227 223 226 223 225 225 228 229 229 229 230 229 229 227 226 228 230 231 233 232 232 233 234 238 240 242 241 243 240 247 251 257 264 267
290 285 277 265 239 232 221 214 212 217 225 223 221 223 221 222 222 222 224 226 226 228 229 229 228 228 229 230 231 234 236 239 240 241 239 240 240 243 244 247 251 257 258 259 262
305 316 297 263 229 216 207 203 196 214 220 222 222 218 216 216 217 215 217 221 220 221 223 226 225 225 227 230 233 235 236 239 240 243 243 242 245 250 250 250 252 257 263 265 262
315 342 359 305 214 208 200 194 190 203 214 215 220 213 215 213 213 210 210 214 214 213 216 218 218 219 221 225 229 235 238 244 250 253 254 255 250 252 256 260 264 267 268 266 263
274 322 340 329 218 203 190 176 185 193 211 213 215 213 211 210 211 208 208 209 210 210 213 213 214 222 225 232 241 245 251 256 261 264 266 264 261 259 264 263 260 262 267 267 264
332 325 305 294 249 197 174 173 184 191 208 212 214 211 207 208 207 207 207 207 208 213 218 220 222 229 237 245 250 257 263 268 271 274 275 275 275 264 270 268 269 268 268 264 260
324 299 309 270 229 186 171 167 186 188 202 207 210 209 206 207 206 208 209 210 212 219 224 230 235 240 246 253 260 266 271 274 275 276 277 278 280 273 278 278 274 271 267 262 259
336 320 316 246 190 178 173 162 178 187 201 203 208 208 205 206 206 208 210 213 218 223 227 236 240 247 255 262 267 272 275 279 282 282 281 282 283 283 282 284 279 274 266 262 258
332 328 315 194 182 181 162 161 173 188 188 200 203 202 204 203 203 205 209 212 219 225 227 235 244 252 259 265 271 276 280 284 285 290 288 288 286 286 283 273 270 270 269 270 260
345 340 266 175 176 184 162 156 184 178 182 193 194 200 202 203 202 204 208 210 215 222 232 240 249 256 262 269 273 274 274 280 285 286 284 288 287 288 290 286 274 266 263 261 265
341 338 184 165 176 170 169 150 167 178 185 181 182 197 200 203 204 205 208 212 218 226 235 243 248 256 264 267 269 272 281 287 290 290 291 294 298 301 300 290 275 260 256 261 259
14 360 157 158 165 152 161 140 165 172 183 193 186 183 187 196 205 207 213 217 223 231 236 243 251 258 261 261 270 277 287 289 288 293 297 298 306 307 302 282 273 270 264 260 255
77 100 159 158 151 147 145 159 160 167 173 171 175 178 186 194 192 201 211 216 221 227 233 246 250 256 249 266 278 290 288 286 292 297 294 300 305 306 294 280 268 265 264 250 244
81 217 159 163 161 141 135 153 157 157 170 173 180 184 190 193 193 198 205 212 220 232 240 245 251 239 262 275 283 288 296 296 295 293 296 293 315 306 311 275 263 261 251 245 238
98 134 148 153 138 131 148 152 160 172 173 176 183 191 198 199 202 208 214 223 228 238 241 250 239 254 273 282 288 292 292 292 292 291 296 307 306 309 325 298 276 262 253 245 245
113 125 146 145 148 149 146 144 162 178 182 186 192 198 202 211 219 225 227 227 236 241 255 241 244 261 276 268 287 303 298 294 302 299 295 311 307 311 323 320 310 287 275 255 243
121 138 149 156 149 146 145 154 173 184 192 195 198 203 208 210 216 223 225 234 240 249 246 237 254 274 275 285 300 295 298 308 313 312 323 320 310 306 312 318 309 296 284 252 240
112 115 134 156 157 155 153 171 192 201 203 203 203 208 212 214 217 221 228 233 242 250 236 242 258 248 264 294 292 298 311 326 346 343 344 345 327 312 307 310 312 315 256 241 228